www.pogodaiklimat.ru

Погода и климат >> Архив погоды >> Португалия >> Ангра-ду-Эроижму


ПОГОДА в Ангра-ду-Эроижму

  • Прогноз погоды в Ангра-ду-Эроижму
  • Монитор погоды в Ангра-ду-Эроижму

АРХИВ ПОГОДЫ в Ангра-ду-Эроижму

Время (UTC), дата Ветер
(напр.,м/с)
 
Видим.   Явления Облачность Т
(С)
Тd
(С)
f
(%)
Тe
(С)
Тes
(С)
Комфортность P
(гПа)
Po
(гПа)
Тmin
(С)
Tmax
(С)
R
(мм)
R24
(мм)
S
(см)
07 12.02 штиль 0 н/о н/о +13.8 +14 +14 1017.6 1006.8
08 12.02 штиль 0 н/о н/о +14.4 +15 +15 1017.3 1006.6
09 12.02 ЮВ 3
{5}
н/о н/о +14.8 +15 +15 1017.7 1006.9
10 12.02
{6}
н/о н/о +15.1 1018.0 1007.3
11 12.02
{6}
н/о н/о +15.3 1018.3 1007.6
12 12.02 ЮВ 3-6
{6}
н/о н/о +16.5 -29.0 3 +16 +16 1018.1 1007.4
13 12.02 ЮВ 6 н/о н/о +16.3 +15 +15 1017.6 1007.0
14 12.02 ЮВ 5-8
{10}
н/о н/о +16.1 -29.2 3 +15 +15 1017.3 1006.7
15 12.02 ЮВ 5-8
{9}
н/о н/о +16.0 +15 +15 1016.3 1005.6
16 12.02 Ю 4-7
{9}
н/о н/о +16.4 +14.9 91 +16 +16 1016.1 1005.4
17 12.02 ЮВ 5-9
{9}
н/о н/о +16.6 +13.7 83 +16 +16 1015.7 1005.1
18 12.02 ЮВ 6-9
{9}
н/о н/о +16.6 +13.8 84 +15 +15 1015.4 1004.8 +17.2
19 12.02 ЮВ 4-7
{8}
н/о н/о +16.0 +14.8 93 +15 +15 1015.1 1004.4
20 12.02 ЮВ 5-9
{9}
н/о н/о +15.8 +15.8 100 +15 +15 1015.2 1004.5
21 12.02 ЮВ 4-8
{10}
н/о н/о +15.6 -29.6 3 +15 +15 1015.8 1005.1
22 12.02 ЮВ 4-6
{8}
н/о н/о +15.7 +15 +15 1015.7 1005.0
23 12.02 ЮВ 6
{12}
н/о н/о +15.8 -29.4 3 +15 +15 1015.5 1004.8
00 13.02 ЮВ 4-7
{9}
н/о н/о +15.9 -29.3 3 +15 +15 1015.1 1004.4
01 13.02 ЮВ 4-10
{10}
н/о н/о +15.5 -29.6 3 +15 +15 1014.0 1003.4 0.8
02 13.02 ЮВ 7-12
{17}
н/о н/о +15.9 +15 +15 1013.5 1002.8 0.8
03 13.02 ЮВ 4-7
{12}
н/о н/о +15.6 -29.5 3 +15 +15 1012.8 1002.1
04 13.02 В 8-13
{14}
н/о н/о +16.1 +15 +15 1011.8 1001.2
05 13.02 ЮВ 8-13
{15}
н/о н/о +16.1 +15 +15 1010.9 1000.3 0.1
06 13.02 В 9-16
{16}
н/о н/о +16.2 +15 +15 1010.1 999.4 +15.4
07 13.02 В 8-17
{17}
н/о н/о +16.0 -29.3 3 +15 +15 1009.1 998.5 0.1
08 13.02 В 9-16
{17}
н/о н/о +16.1 +15 +15 1008.0 997.4
09 13.02 В 9-15
{21}
н/о н/о +15.8 -29.4 3 +14 +14 1007.4 996.8 0.8
10 13.02 В 10-17
{18}
н/о н/о +16.0 +14 +14 1006.6 996.0 2
11 13.02 В 7-13
{18}
н/о н/о +16.5 +15 +15 1006.2 995.7
12 13.02 В 11-16
{18}
н/о н/о +16.5 +15 +15 1005.0 994.5
13 13.02 В 11-19
{23}
н/о н/о +16.3 +15 +15 1003.8 993.3
14 13.02 В 13-21
{22}
н/о н/о +16.1 +14 +14 1002.0 991.5 2
15 13.02 В 12-20
{23}
н/о н/о +15.7 -29.5 3 +14 +14 999.6 989.1 6
16 13.02 В 11-21
{23}
н/о н/о +16.3 -29.1 3 +15 +15 996.8 986.3 0.1
17 13.02 ЮВ 7-10
{29}
н/о н/о +12.8 -31.4 3 +11 +11 997.2 986.6 6
18 13.02 ЮВ 7-11
{13}
н/о н/о +13.4 +12 +12 996.5 985.9 +16.8 1
19 13.02 ЮЗ 6-11
{13}
н/о н/о +11.5 -31.7 3 +10 +10 997.2 986.5 2
20 13.02 ЮЗ 5-10
{12}
н/о н/о +10.8 +10.8 100 +8 +8 998.2 987.5
21 13.02 ЮЗ 4-7
{9}
н/о н/о +10.6 +7.9 83 +8 +8 999.2 988.5 19
22 13.02 ЮЗ 3-6
{10}
н/о н/о +10.2 +9.5 95 +8 +8 1000.9 990.1 0.1
23 13.02 ЮЗ 4-8
{11}
н/о н/о +10.4 +6.3 76 +8 +8 1001.6 990.9
00 14.02 ЮЗ 6-11
{14}
н/о н/о +10.9 +6.8 76 +8 +8 1002.6 991.9 0.3
01 14.02 ЮЗ 5-9
{11}
н/о н/о +10.0 +6.8 80 +7 +7 1003.3 992.5 0.8
02 14.02 ЮЗ 5-8
{10}
н/о н/о +10.8 +6.5 75 +8 +8 1003.6 992.9 0.1
03 14.02 ЮЗ 3-5
{9}
н/о н/о +10.4 +6.5 77 +8 +8 1004.2 993.5 0.3
04 14.02 ЮЗ 4-6
{7}
н/о н/о +10.9 +5.8 71 +9 +9 1004.7 994.0
05 14.02 ЮЗ 4-8
{12}
н/о н/о +9.9 +3.9 66 +7 +7 1005.5 994.7 0.4
06 14.02 З 4-8
{10}
н/о н/о +9.5 +5.2 75 +7 +7 1006.6 995.8 +9.3 0.2
07 14.02 ЮЗ 4-7
{12}
н/о н/о +9.6 +5.8 77 +7 +7 1007.6 996.8 0.1
08 14.02 ЮЗ 3-7
{11}
н/о н/о +9.9 +4.4 69 +8 +8 1008.6 997.7
09 14.02 ЮЗ 4-7
{9}
н/о н/о +10.4 +4.5 67 +8 +8 1010.1 999.3
10 14.02 ЮЗ 3-6
{7}
н/о н/о +10.6 +5.4 70 +9 +9 1011.2 1000.4
11 14.02 С 2-6
{6}
н/о н/о +11.1 +6.0 71 +10 +10 1012.5 1001.6
12 14.02 С 2
{11}
н/о н/о +9.2 +6.2 81 +8 +8 1013.6 1002.7 0.6
13 14.02
{5}
н/о н/о +11.9 +4.6 61 1013.8 1003.0
14 14.02 З 3-6
{13}
н/о н/о +10.5 +6.4 76 +9 +9 1014.4 1003.6 0.1
15 14.02 ЮЗ 6-11
{11}
н/о н/о +11.9 +5.6 65 +9 +9 1014.9 1004.1 0.3
16 14.02 ЮЗ 4-9
{11}
н/о н/о +12.1 +6.4 68 +10 +10 1015.1 1004.3
17 14.02 ЮЗ 4-8
{9}
н/о н/о +11.6 +6.1 69 +10 +10 1016.0 1005.1 0.2
18 14.02 ЮЗ 5-8
{10}
н/о н/о +11.3 +5.5 67 +9 +9 1016.7 1005.8 +12.6
19 14.02 ЮЗ 5-9
{10}
н/о н/о +10.2 +5.7 74 +7 +7 1017.6 1006.7
20 14.02 З 4-7
{7}
н/о н/о +10.1 +4.8 70 +8 +8 1018.9 1008.0
21 14.02 нст 3
{12}
н/о н/о +9.4 +5.4 76 1020.4 1009.5 2
22 14.02 З 3-5
{7}
н/о н/о +9.0 +5.5 79 +7 +7 1021.5 1010.5 0.3
23 14.02 С 1
{7}
н/о н/о +9.2 +5.3 77 +9 +9 1022.4 1011.4
00 15.02 штиль 0 н/о н/о +8.8 +5.6 80 +8 +8 1023.1 1012.1 0.3
01 15.02 штиль 0 н/о н/о +7.9 +5.1 82 +7 +7 1023.6 1012.6
02 15.02 С 3
{8}
н/о н/о +9.2 +4.4 72 +7 +7 1024.4 1013.4
03 15.02 штиль 0
{5}
н/о н/о +8.1 +4.8 80 +7 +7 1024.8 1013.8
04 15.02 штиль 0 н/о н/о +9.1 +5.4 78 +8 +8 1025.2 1014.1
05 15.02 штиль 0 н/о н/о +8.2 +4.6 78 +7 +7 1024.7 1013.6
06 15.02 штиль 0 н/о н/о +9.4 +5.1 74 +9 +9 1025.2 1014.2 +7.9
07 15.02 штиль 0 н/о н/о +8.9 +4.5 74 +8 +8 1025.4 1014.4
08 15.02 штиль 0 н/о н/о +9.4 +4.6 72 +9 +9 1025.8 1014.8
09 15.02 штиль 0 н/о н/о +9.4 +5.0 74 +9 +9 1026.3 1015.2
10 15.02 штиль 0 н/о н/о +11.6 +6.3 70 +11 +11 1026.6 1015.6
11 15.02 Ю 3-6
{6}
н/о н/о +12.7 +7.1 69 +11 +11 1026.7 1015.8
12 15.02 Ю 4-6
{7}
н/о н/о +13.8 +7.0 64 +12 +12 1026.3 1015.4
13 15.02 Ю 4-7
{7}
н/о н/о +13.7 +6.7 63 +12 +12 1026.3 1015.5
14 15.02 Ю 4
{8}
н/о н/о +13.9 +7.6 66 +13 +13 1025.6 1014.7
15 15.02 ЮВ 4-7
{8}
н/о н/о +14.5 +8.3 66 +13 +13 1024.9 1014.1
16 15.02 ЮВ 5-9
{10}
н/о н/о +14.1 +8.8 70 +12 +12 1024.6 1013.7
17 15.02 ЮВ 6-11
{11}
н/о н/о +14.2 +9.5 73 +12 +12 1024.3 1013.5
18 15.02 ЮВ 5-9
{10}
н/о н/о +14.4 +10.1 75 +13 +13 1024.4 1013.6 +14.9
19 15.02 Ю 6-9
{12}
н/о н/о +14.6 +10.4 76 +13 +13 1023.8 1013.0
20 15.02 Ю 6-11
{12}
н/о н/о +14.7 +11.4 81 +13 +13 1023.8 1012.9
21 15.02 ЮВ 6-10
{12}
н/о н/о +14.8 +12.6 87 +13 +13 1023.5 1012.7
22 15.02 Ю 6-12
{12}
н/о н/о +14.8 +14.8 100 +13 +13 1023.2 1012.4
23 15.02 ЮВ 8-12
{12}
н/о н/о +14.8 +13 +13 1023.1 1012.3
00 16.02 ЮВ 7-10
{12}
н/о н/о +15.2 +14 +14 1022.3 1011.5
01 16.02 ЮВ 7
{12}
н/о н/о +15.1 +14 +14 1021.6 1010.8
02 16.02 ЮВ 7-12
{12}
н/о н/о +15.1 +14 +14 1020.9 1010.1 0.7
03 16.02 Ю 7-14
{14}
н/о н/о +15.2 -28.6 3 +14 +14 1020.2 1009.5 0.3
04 16.02 Ю 7-14
{14}
н/о н/о +15.2 +14 +14 1019.3 1008.6 0.3
05 16.02 Ю 7
{14}
н/о н/о +15.3 -28.5 3 +14 +14 1019.1 1008.4 3
06 16.02 Ю 6-11
{11}
н/о н/о +15.1 -29.9 3 +14 +14 1019.2 1008.5 +14.3 3
07 16.02 Ю 6-10
{11}
н/о н/о +14.9 +14 +14 1019.5 1008.7 0.4
08 16.02 Ю 5-8
{13}
н/о н/о +14.2 -30.5 3 +13 +13 1019.8 1009.0 1
09 16.02 нст 2-6
{10}
н/о н/о +14.4 1020.9 1010.1 0.1
10 16.02 ЮЗ 3-6
{8}
н/о н/о +14.3 +10.9 80 +13 +13 1022.2 1011.3
11 16.02 ЮЗ 4-7
{9}
н/о н/о +14.6 +8.9 69 +13 +13 1023.2 1012.4
12 16.02 ЮЗ 5-8
{9}
н/о н/о +14.6 +8.3 66 +13 +13 1023.7 1012.8
13 16.02 ЮЗ 5-8
{10}
н/о н/о +15.8 +6.6 54 +15 +15 1023.7 1012.9
14 16.02 С 3-5
{10}
н/о н/о +16.2 +9.5 64 +16 +16 1023.6 1012.9
15 16.02 ЮЗ 4-11
{11}
н/о н/о +16.3 +8.0 58 +16 +16 1023.2 1012.5
16 16.02 ЮЗ 5-9
{10}
н/о н/о +14.8 +8.2 65 +13 +13 1023.5 1012.7
17 16.02 С 2-6
{10}
н/о н/о +14.4 +8.2 66 +14 +14 1024.1 1013.3
18 16.02 З 5-9
{10}
н/о н/о +13.9 +7.2 64 +12 +12 1024.5 1013.6 +16.5
19 16.02 ЮЗ 3-6
{10}
н/о н/о +13.4 +7.4 67 +12 +12 1025.1 1014.2
20 16.02 З 4-6
{8}
н/о н/о +12.9 +7.4 69 +11 +11 1025.8 1014.9
21 16.02 нст 3-6
{9}
н/о н/о +12.7 +5.7 62 1026.4 1015.5
22 16.02 С 2-6
{7}
н/о н/о +12.9 +6.2 64 +12 +12 1027.0 1016.0
23 16.02 З 3-6
{7}
н/о н/о +12.7 +5.1 60 +11 +11 1027.7 1016.8
00 17.02 штиль 0
{6}
н/о н/о +12.3 +5.9 65 +12 +12 1028.1 1017.1
01 17.02
{7}
н/о н/о +12.4 +5.5 63 1028.5 1017.5
02 17.02 штиль 0
{5}
н/о н/о +12.4 +5.2 61 +12 +12 1028.8 1017.9
03 17.02 штиль 0
{5}
н/о н/о +12.4 +5.7 64 +12 +12 1028.8 1017.9
04 17.02 ЮЗ 3-5
{6}
н/о н/о +12.3 +6.0 65 +11 +11 1028.9 1017.9
05 17.02 штиль 0
{5}
н/о н/о +11.4 +3.7 59 +11 +11 1028.8 1017.8
06 17.02 штиль 0 н/о н/о +11.6 +5.0 64 +11 +11 1028.9 1017.9 +10.6
07 17.02 штиль 0 н/о н/о +11.2 +4.3 62 +11 +11 1029.4 1018.4
08 17.02 штиль 0 н/о н/о +10.3 +5.1 70 +10 +10 1029.4 1018.4
09 17.02 штиль 0 н/о н/о +11.2 +4.0 61 +11 +11 1030.3 1019.3
10 17.02 штиль 0 н/о н/о +11.3 +4.2 62 +11 +11 1031.0 1020.0
11 17.02 штиль 0 н/о н/о +13.4 +4.8 56 +13 +13 1031.2 1020.3
12 17.02 С 1-5
{10}
н/о н/о +14.9 +4.6 50 +16 +16 1031.5 1020.6
13 17.02 З 4-6
{8}
н/о н/о +14.4 +4.4 51 +13 +13 1031.7 1020.8
14 17.02 З 5-8
{8}
н/о н/о +14.5 +5.5 55 +13 +13 1031.7 1020.8
15 17.02 ЮЗ 4-9
{9}
н/о н/о +15.5 +5.1 50 +15 +15 1031.0 1020.1
16 17.02 -8
{9}
н/о н/о +14.9 +3.7 47 1030.7 1019.9
17 17.02
{7}
н/о н/о +14.6 +4.3 50 1030.8 1019.9
18 17.02 С 2
{6}
н/о н/о +13.5 +5.7 59 +13 +13 1030.8 1019.9 +15.7
19 17.02 З 3
{5}
н/о н/о +12.9 +6.0 63 +12 +12 1030.8 1019.9
20 17.02 З 4 н/о н/о +11.2 +6.3 72 +9 +9 1031.2 1020.1
21 17.02 СЗ 3
{6}
н/о н/о +10.8 +5.9 72 +9 +9 1031.7 1020.6
22 17.02 штиль 0 н/о н/о +10.8 +5.5 70 +10 +10 1031.5 1020.5
23 17.02 штиль 0 н/о н/о +10.6 +5.4 70 +10 +10 1031.7 1020.6
00 18.02 штиль 0 н/о н/о +11.3 +6.0 70 +11 +11 1031.7 1020.7
01 18.02 штиль 0 н/о н/о +11.1 +6.3 72 +11 +11 1031.0 1020.0
02 18.02 штиль 0 н/о н/о +11.7 +6.1 68 +11 +11 1030.5 1019.5
03 18.02 нст 3-6
{6}
н/о н/о +12.5 +5.6 63 1029.7 1018.8
04 18.02 ЮВ 4-7
{7}
н/о н/о +12.6 +5.8 63 +11 +11 1029.3 1018.4
05 18.02 ЮВ 5-9
{9}
н/о н/о +12.9 +5.9 62 +11 +11 1028.6 1017.7
06 18.02 ЮВ 5-8
{10}
н/о н/о +13.1 +6.6 65 +11 +11 1027.8 1016.9 +10.3
07 18.02 ЮВ 6-10
{10}
н/о н/о +13.1 +7.0 66 +11 +11 1027.7 1016.8
08 18.02 ЮВ 6-9
{10}
н/о н/о +13.4 +7.7 68 +11 +11 1027.1 1016.3
09 18.02 ЮВ 5-9
{9}
н/о н/о +13.7 +8.0 68 +12 +12 1027.1 1016.2
10 18.02 ЮВ 6-10
{10}
н/о н/о +14.1 +9.2 72 +12 +12 1026.9 1016.0
11 18.02 ЮВ 6-10
{11}
н/о н/о +14.9 +9.3 69 +13 +13 1026.6 1015.8
12 18.02 ЮВ 6-10
{10}
н/о н/о +14.7 +9.9 73 +13 +13 1026.2 1015.4
13 18.02 ЮВ 5-9
{10}
н/о н/о +15.1 +10.2 73 +14 +14 1025.8 1014.9
14 18.02 ЮВ 7-11
{11}
н/о н/о +14.8 +11.3 80 +13 +13 1024.7 1013.9
15 18.02 ЮВ 6-10
{12}
н/о н/о +15.1 +11.8 81 +13 +13 1023.5 1012.7
16 18.02 ЮВ 6-11
{12}
н/о н/о +15.3 +12.2 82 +14 +14 1022.6 1011.8
17 18.02 ЮВ 6-10
{11}
н/о н/о +15.3 +12.8 85 +14 +14 1022.0 1011.2
18 18.02 ЮВ 6-11
{12}
н/о н/о +15.5 +13.3 87 +14 +14 1021.2 1010.5 +15.6
19 18.02 ЮВ 6-10
{15}
н/о н/о +15.3 +13.2 87 +14 +14 1020.6 1009.9
20 18.02 ЮВ 7-11
{13}
н/о н/о +15.5 +13.6 88 +14 +14 1020.8 1010.0
21 18.02 ЮВ 5-10
{10}
н/о н/о +15.5 +13.3 87 +14 +14 1020.8 1010.1
22 18.02 В 4-8
{14}
н/о н/о +15.7 +13.7 88 +15 +15 1020.5 1009.8
23 18.02 ЮВ 4-8
{8}
н/о н/о +15.7 +14.1 90 +15 +15 1019.2 1008.4
00 19.02 ЮВ 8-13
{15}
н/о н/о +15.8 +14.1 90 +14 +14 1018.1 1007.4
01 19.02 ЮВ 7-13
{15}
н/о н/о +15.9 +15.6 98 +14 +14 1017.5 1006.8
02 19.02 ЮВ 9-15
{16}
н/о н/о +15.8 -29.4 3 +14 +14 1016.4 1005.7
03 19.02 ЮВ 8-14
{16}
н/о н/о +15.4 -29.7 3 +14 +14 1015.3 1004.6 0.1
04 19.02 ЮВ 10-16
{17}
н/о н/о +15.7 +14 +14 1014.2 1003.5 0.2
05 19.02 ЮВ 9-15
{15}
н/о н/о +15.6 +14 +14 1012.6 1002.0 1
06 19.02 ЮВ 9 н/о н/о +16.0 +14 +14 1011.5 1000.9 +15.2
07 19.02 ЮВ 7-13
{20}
н/о н/о +15.7 +14 +14 1011.5 1000.9 0.1
08 19.02 ЮВ 9-15
{15}
н/о н/о +15.7 -29.5 3 +14 +14 1010.4 999.8 2

 

Местоположение метеостанции Ангра-ду-Эроижму (Португалия): широта 38.67 долгота -27.21 высота над уровнем моря 76 м.

В архиве по умолчанию представлена погода в Ангра-ду-Эроижму за последнюю неделю. Архивные данные за месяц целиком и за предыдущие месяцы, начиная с января 2011 года, Вы можете получить, выбрав интересующий диапазон дат из раскрывающегося списка и нажав кнопку "Ввод!".


*Определитесь, кто Вы:
робот инопланетянин человек

Внимание! Время в таблицах - всемирное. Для получения местного времени необходимо прибавить поправку, которая равна 0 ч.

Смотрите также архив погоды в соседних городах и на ближайших метеорологических станциях:

Погода в Аэропорту Лажеша (Португалия) (15 км)
Погода на Острове Грасьоса (Португалия) (84 км)
Погода в Орте (Португалия) (125 км)
Погода в Каштелу-Бранку (Португалия) (131 км)
Погода в Понта-Делгаде (Португалия) (168 км)
Погода в Санта-Марии (Португалия) (261 км)
Погода на Флошише (Португалия) (349 км)
Погода в Финшале (Португалия) (1148 км)
Погода в Санта-Катарине (Португалия) (1154 км)
Погода на Порту-Санту (Португалия) (1159 км)

Пояснения к столбцам:

Ветер - указаны скорость ветра в м/с - средняя за 10 мин, порывы в срок и между сроками (в фигурных скобках) и направление, откуда дует ветер: С - северный, СВ - северо-восточный, В - восточный, ЮВ - юго-восточный, Ю - южный, ЮЗ - юго-западный, З - западный, СЗ - северо-западный.
Видимость - горизонтальная дальность видимости в метрах или километрах. При видимости от 1 до 10 км при отсутствии осадков обычно наблюдается дымка, при ухудшении видимости до 1 км и менее - туман. В сухую погоду видимость может ухудшаться дымом, пылью или мглою.
Явления - указаны атмосферные явления, наблюдавшиеся в срок или в последний час перед сроком; фигурными скобками обозначены явления, наблюдавшиеся между сроками (за 1-3 часа до срока); квадратными скобками обозначены град или гололедные отложения с указанием их диаметра в мм.
Облачность - указаны через наклонную черту общая и нижняя облачность в баллах и высота нижней границы облаков в метрах; квадратными скобками обозначены формы облаков: Ci - перистые, Cs - перисто-слоистые, Cc - перисто-кучевые, Ac - высококучевые, As - высокослоистые, Sc - слоисто-кучевые, Ns - слоисто-дождевые, Cu - кучевые, Cb - кучево-дождевые. Подробнее классификацию облаков см. в Атласе облаков (PDF).
T - Температура воздуха - температура, измеренная на высоте 2 м над землей.
Td - Температура точки росы - температура, при понижении до которой содержащийся в воздухе водяной пар достигнет насыщения.
f - Относительная влажность воздуха - влажноcть воздуха, измеренная на высоте 2 м над землей.
Te - Эффективная температура - температура, которую ощущает одетый по сезону человек в тени. Характеристика душности погоды. При расчете учитывается влияние влажности воздуха и скорости ветра на теплоощущения человека.
Tes - Эффективная температура на солнце - температура, которую ощущает человек, с поправкой на солнечный нагрев. Характеристика знойности погоды. Зависит от высоты солнца над горизонтом, облачности и скорости ветра. Ночью, в пасмурную погоду, а также при ветре 12 м/с и более поправка равна нулю.
P - Атмосферное давление - приведенное к уровню моря атмосферное давление.
Po - Атмосферное давление - измеренное на уровне метеостанции атмосферное давление.
Tmin - Минимальная температура - минимум температуры воздуха на высоте 2 м над землей.
Tmax - Максимальная температура - максимум температуры воздуха на высоте 2 м над землей.
R - Количество осадков - Количество выпавших осадков за период времени, мм. При наведении курсора мыши на число - период времени, за который выпало указанное количество осадков.
R24 - Количество осадков - Количество выпавших осадков за 24 часа, мм.
S - Снежный покров - Высота снежного покрова, см. При наведении курсора мыши на число - состояние снежного покрова и степень покрытия местности в баллах.